OPS-SAT (44878 NORAD) Tracking and Keplerian Element Data

This shows tracking and keplerian element data for the satellite.

Feedback or suggestion? Click here.




ElementValue
Catalog44878
NameOPS-SAT
Epoch Orbit3026
Epoch Day187.4606761
Epoch Year2020
RAAN10.4271
Inclination97.4687
Eccentricity0.001264
Argument of Perigee297.6529
Mean Anonmoly62.342
Mean Motion15.15509339
Decay Rate6.21E-06
L11 44878U 19092F 20187.46067610 .00000621 00000-0 36231-4 0 9998
L22 44878 97.4687 10.4271 0012640 297.6529 62.3420 15.15509339 30261

Live tracking and technical data element details for OPS-SAT (NORAD 44878). OPS-SAT can be tracked NOW for your location showing map with azimuth and elevation plus other details from your city location.

Track the satellite on the map from your city or location and see movement details for azimuth, elevation, latitude, longitude, range, height, and movement on the map or in text.







IsCatalogInMostPopularTable: catalog: 44878, numindb: 55
Update: records affected: 1



GetName: 44878 OPS-SAT

Hit Count: updated at: Mon, 06 Jul 2020 06:45:55 GMT